LA5PPA-1 Mjondalen NO current weather conditions

sailwx.info

Wind from 320 at 1 knots gusting 6

Air temperature 10.0° C
Dewpoint 1.1° C

Last reported at 2019-Sep-20 16:01 UTC.
Time now 2019-Sep-20 16:52 UTC

Location: N 59°45' E 010°02'.
View on Google Maps.

See reports from other nearby stations

  
Tides and Currents Weather Stations Pressure Air Temp Water Temp Dewpoint Dewpoint Depression Visibility Wind Speed Wind Dir Waves Ship Positions
date/time (UTC)wind fromknots sea level pressurealtimeterstation pressurevisibilityair tempwater tempwave heightnotes
2019-Sep-20 16:01 320 1 gusting 6 10.0
2019-Sep-20 15:56 319 3 gusting 6 10.0
2019-Sep-20 15:51 317 4 gusting 8 10.0
2019-Sep-20 15:46 350 1 gusting 6 10.6
2019-Sep-20 15:41 337 2 gusting 7 10.6
2019-Sep-20 15:36 291 6 gusting 8 10.6
2019-Sep-20 15:31 310 2 gusting 7 10.6
2019-Sep-20 15:26 338 2 gusting 11 10.6
2019-Sep-20 15:21 313 6 gusting 9 10.6
2019-Sep-20 15:16 326 3 gusting 8 10.6
2019-Sep-20 15:11 329 6 gusting 8 10.6
2019-Sep-20 15:06 334 6 gusting 9 10.6
2019-Sep-20 15:01 315 2 gusting 9 10.6
2019-Sep-20 14:56 343 2 gusting 12 10.6
2019-Sep-20 14:51 320 4 gusting 6 10.6
2019-Sep-20 14:46 326 1 gusting 6 11.1
2019-Sep-20 14:41 319 2 gusting 10 11.1
2019-Sep-20 14:36 336 3 gusting 11 11.1
2019-Sep-20 14:31 344 5 gusting 10 11.7
2019-Sep-20 14:26 320 5 gusting 10 11.1
2019-Sep-20 14:21 345 5 gusting 13 11.1
2019-Sep-20 14:16 326 6 gusting 13 11.7
2019-Sep-20 14:11 326 6 gusting 13 11.7
2019-Sep-20 14:06 326 6 gusting 11 11.7
2019-Sep-20 14:01 324 4 gusting 13 12.2
2019-Sep-20 13:56 317 7 gusting 13 12.2
2019-Sep-20 13:51 306 6 gusting 13 12.8
2019-Sep-20 13:46 340 2 gusting 8 12.8
2019-Sep-20 13:41 340 3 gusting 9 12.8
2019-Sep-20 13:36 305 6 gusting 9 12.8
2019-Sep-20 13:31 315 1 gusting 11 12.8
2019-Sep-20 13:26 302 3 gusting 11 12.8
2019-Sep-20 13:21 330 5 gusting 12 12.8
2019-Sep-20 13:16 326 8 gusting 9 13.3
2019-Sep-20 13:11 278 6 gusting 13 12.8
2019-Sep-20 13:06 324 2 gusting 17 12.8
2019-Sep-20 13:01 310 5 gusting 14 12.8
2019-Sep-20 12:56 336 4 gusting 12 12.8
2019-Sep-20 12:51 340 6 gusting 13 12.8
2019-Sep-20 12:46 326 7 gusting 16 12.8
2019-Sep-20 12:41 307 8 gusting 10 12.8
2019-Sep-20 12:36 324 6 gusting 13 12.8
2019-Sep-20 12:31 326 5 gusting 13 12.8
2019-Sep-20 12:26 337 6 gusting 17 12.2
2019-Sep-20 12:21 316 6 gusting 18 12.2
2019-Sep-20 12:16 341 4 gusting 18 12.2
2019-Sep-20 12:11 331 6 gusting 13 12.2
2019-Sep-20 12:06 327 6 gusting 19 12.2
2019-Sep-20 12:01 316 7 gusting 19 12.2
2019-Sep-20 11:56 341 6 gusting 18 12.2
2019-Sep-20 11:51 305 7 gusting 19 12.2
2019-Sep-20 11:46 002 6 gusting 16 12.2
2019-Sep-20 11:41 305 11 gusting 15 12.2
2019-Sep-20 11:36 288 13 gusting 19 12.2
2019-Sep-20 11:31 344 6 gusting 16 11.7
2019-Sep-20 11:26 333 6 gusting 17 11.7
2019-Sep-20 11:21 298 12 gusting 16 11.1
2019-Sep-20 11:16 324 14 gusting 21 11.1
2019-Sep-20 11:11 334 7 gusting 19 11.7
2019-Sep-20 11:06 336 8 gusting 20 11.7
2019-Sep-20 11:01 315 11 gusting 14 11.7
2019-Sep-20 10:56 323 9 gusting 15 11.1
2019-Sep-20 10:51 300 7 gusting 13 11.1
2019-Sep-20 10:46 309 7 gusting 17 11.7
2019-Sep-20 10:41 307 9 gusting 17 11.7
2019-Sep-20 10:36 333 6 gusting 14 11.7
2019-Sep-20 10:31 341 9 gusting 20 11.7
2019-Sep-20 10:26 330 6 gusting 15 11.7
2019-Sep-20 10:21 298 7 gusting 17 11.7
2019-Sep-20 10:16 309 9 gusting 14 11.7
2019-Sep-20 10:11 327 6 gusting 13 11.7
2019-Sep-20 10:06 322 4 gusting 16 11.7
2019-Sep-20 10:01 329 7 gusting 12 11.7
2019-Sep-20 09:56 320 5 gusting 16 11.1
2019-Sep-20 09:51 343 8 gusting 16 11.1
2019-Sep-20 09:46 344 6 gusting 17 11.1
2019-Sep-20 09:41 317 8 gusting 19 11.1
2019-Sep-20 09:36 323 7 gusting 13 11.1
2019-Sep-20 09:31 327 8 gusting 14 11.1
2019-Sep-20 09:26 340 6 gusting 15 11.1
2019-Sep-20 09:21 300 8 gusting 13 11.1
2019-Sep-20 09:16 322 6 gusting 13 11.1
2019-Sep-20 09:11 333 5 gusting 13 10.6
2019-Sep-20 09:06 317 10 gusting 13 10.6
2019-Sep-20 09:01 347 2 gusting 11 10.6
2019-Sep-20 08:56 336 10 gusting 14 10.0
2019-Sep-20 08:51 315 6 gusting 18 10.0
2019-Sep-20 08:46 316 8 gusting 11 10.0
2019-Sep-20 08:41 312 4 gusting 13 10.0
2019-Sep-20 08:36 333 7 gusting 14 10.0
2019-Sep-20 08:31 358 0 gusting 12 10.0
2019-Sep-20 08:26 320 7 gusting 14 9.4
2019-Sep-20 08:21 324 4 gusting 15 9.4
2019-Sep-20 08:16 317 11 gusting 14 8.9
2019-Sep-20 08:11 035 4 gusting 13 8.9
2019-Sep-20 08:06 327 8 gusting 14 8.3
2019-Sep-20 08:01 317 6 gusting 14 8.3
2019-Sep-20 07:56 299 5 gusting 19 8.3
2019-Sep-20 07:51 334 6 gusting 13 7.8
2019-Sep-20 07:46 333 3 gusting 12 7.8
2019-Sep-20 07:41 307 2 gusting 8 7.8
2019-Sep-20 07:36 303 5 gusting 10 7.8
2019-Sep-20 07:31 329 7 gusting 12 7.8
2019-Sep-20 07:26 320 7 gusting 11 7.8
2019-Sep-20 07:21 312 3 gusting 9 7.8
2019-Sep-20 07:16 289 5 gusting 10 7.8
2019-Sep-20 07:11 274 5 gusting 13 7.8
2019-Sep-20 07:06 316 3 gusting 12 7.8
2019-Sep-20 07:01 327 9 gusting 9 7.2
2019-Sep-20 06:56 319 5 gusting 11 7.2
2019-Sep-20 06:51 309 4 gusting 8 7.2
2019-Sep-20 06:46 317 2 gusting 8 7.2
2019-Sep-20 06:41 320 4 gusting 11 7.2
2019-Sep-20 06:36 326 5 gusting 12 7.2
2019-Sep-20 06:31 312 6 gusting 9 6.7
2019-Sep-20 06:26 338 2 gusting 13 6.7
2019-Sep-20 06:21 344 3 gusting 13 6.7
2019-Sep-20 06:16 345 7 gusting 10 6.7
2019-Sep-20 06:11 320 4 gusting 11 6.1
2019-Sep-20 06:06 324 4 gusting 9 6.1
2019-Sep-20 06:01 320 3 gusting 9 6.1
2019-Sep-20 05:56 322 8 gusting 8 6.1
2019-Sep-20 05:51 323 4 gusting 10 5.6
2019-Sep-20 05:46 324 3 gusting 7 5.6
2019-Sep-20 05:41 336 4 gusting 8 5.6
2019-Sep-20 05:36 343 0 gusting 9 5.6
2019-Sep-20 05:31 324 4 gusting 6 5.6
2019-Sep-20 05:26 333 4 gusting 9 5.0
2019-Sep-20 05:21 298 5 gusting 8 5.0
2019-Sep-20 05:16 330 2 gusting 7 5.0
2019-Sep-20 05:11 326 2 gusting 6 5.0
2019-Sep-20 05:06 327 4 gusting 7 5.0
2019-Sep-20 05:01 338 5 gusting 5 5.0
2019-Sep-20 04:56 329 2 gusting 5 5.0
2019-Sep-20 04:51 343 0 gusting 5 5.0
2019-Sep-20 04:46 320 0 gusting 6 5.0
2019-Sep-20 04:41 303 2 gusting 6 5.0
2019-Sep-20 04:36 307 3 gusting 6 5.0
2019-Sep-20 04:31 326 3 gusting 10 4.4
2019-Sep-20 04:26 295 6 gusting 11 4.4
2019-Sep-20 04:21 312 1 gusting 11 4.4
2019-Sep-20 04:16 307 3 gusting 8 3.9
2019-Sep-20 04:11 313 2 gusting 7 3.9
2019-Sep-20 04:06 329 1 gusting 6 3.9
2019-Sep-20 04:01 329 2 gusting 7 3.9
2019-Sep-20 03:56 300 0 gusting 6 3.3
2019-Sep-20 03:51 302 2 gusting 6 3.3
2019-Sep-20 03:46 327 0 gusting 3 3.3
2019-Sep-20 03:41 293 3.3
2019-Sep-20 03:36 307 3.9
2019-Sep-20 03:31 307 3.9
2019-Sep-20 03:26 307 3.9
2019-Sep-20 03:21 298 3.9
2019-Sep-20 03:16 316 1 gusting 4 3.9
2019-Sep-20 03:11 313 3 gusting 3 3.9
2019-Sep-20 03:06 315 1 gusting 5 3.9
2019-Sep-20 03:01 313 1 gusting 3 3.9
2019-Sep-20 02:56 313 3 gusting 6 3.9
2019-Sep-20 02:51 333 1 gusting 5 3.3
2019-Sep-20 02:46 315 2 gusting 3 3.3
2019-Sep-20 02:41 316 1 gusting 5 3.9
2019-Sep-20 02:36 313 1 gusting 3 3.3
2019-Sep-20 02:31 312 1 gusting 4 3.9
2019-Sep-20 02:26 320 0 gusting 4 3.3
2019-Sep-20 02:21 309 3.3
2019-Sep-20 02:16 329 0 gusting 4 3.3
2019-Sep-20 02:11 316 1 gusting 5 3.3
2019-Sep-20 02:06 326 2 gusting 6 3.3
2019-Sep-20 02:01 326 1 gusting 5 3.3
2019-Sep-20 01:56 317 3 gusting 3 3.3
2019-Sep-20 01:51 326 3.3
2019-Sep-20 01:46 306 1 gusting 4 3.3
2019-Sep-20 01:41 326 3.3
2019-Sep-20 01:36 326 3.3
2019-Sep-20 01:31 326 3.3
2019-Sep-20 01:26 326 3.3
2019-Sep-20 01:21 312 2.8
2019-Sep-20 01:16 329 2.8
2019-Sep-20 01:11 285 2.8
2019-Sep-20 01:06 305 2.8
2019-Sep-20 01:01 305 2.8
2019-Sep-20 00:56 317 2.8
2019-Sep-20 00:51 317 2.8
2019-Sep-20 00:46 317 2.8
2019-Sep-20 00:41 296 1 gusting 1 2.8
2019-Sep-20 00:36 327 2.8
2019-Sep-20 00:31 306 2.8
2019-Sep-20 00:26 312 2.8
2019-Sep-20 00:21 312 2.8
2019-Sep-20 00:16 312 2.8
2019-Sep-20 00:11 312 2.8
2019-Sep-20 00:06 312 0 gusting 2 2.8
2019-Sep-19 23:56 305 2.8
2019-Sep-19 23:51 296 2.8
2019-Sep-19 23:46 319 2.8
2019-Sep-19 23:41 317 2.8
2019-Sep-19 23:36 317 2.8
2019-Sep-19 23:31 317 2.8
2019-Sep-19 23:26 317 2.8
2019-Sep-19 23:21 317 2.8
2019-Sep-19 23:16 317 2.8
2019-Sep-19 23:11 317 2.8
2019-Sep-19 23:06 317 2.8
2019-Sep-19 23:01 317 2.8
2019-Sep-19 22:56 317 2.8
2019-Sep-19 22:51 317 2.2
2019-Sep-19 22:46 317 2.2
2019-Sep-19 22:41 317 2.2
2019-Sep-19 22:36 317 2.2
2019-Sep-19 22:31 316 2.2
2019-Sep-19 22:26 305 2.2
2019-Sep-19 22:21 305 2.2
2019-Sep-19 22:16 305 2.2
2019-Sep-19 22:11 333 3 gusting 3 2.2
2019-Sep-19 22:06 315 0 gusting 4 2.2
2019-Sep-19 22:01 320 1 gusting 2 2.2
2019-Sep-19 21:56 307 0 gusting 4 2.2
2019-Sep-19 21:51 299 2.2
2019-Sep-19 21:46 333 2 gusting 2 2.2
2019-Sep-19 21:41 317 0 gusting 2 2.2
2019-Sep-19 21:36 322 1 gusting 2 2.2
2019-Sep-19 21:31 300 2.2
2019-Sep-19 21:26 324 2.2
2019-Sep-19 21:21 309 2.2
2019-Sep-19 21:16 310 0 gusting 4 2.2
2019-Sep-19 21:11 295 2.2
2019-Sep-19 21:06 312 0 gusting 3 2.2
2019-Sep-19 21:01 303 2.2
2019-Sep-19 20:56 303 2.2
2019-Sep-19 20:51 303 2.2
2019-Sep-19 20:46 322 1 gusting 1 2.2
2019-Sep-19 20:41 320 1 gusting 3 2.2
2019-Sep-19 20:36 282 2.2
2019-Sep-19 20:31 267 2.2
2019-Sep-19 20:26 267 2.2
2019-Sep-19 20:21 267 2.2
2019-Sep-19 20:16 267 2.8
2019-Sep-19 20:11 267 2.2
2019-Sep-19 20:06 267 2.8
2019-Sep-19 20:01 323 2.2
2019-Sep-19 19:56 278 2.2
2019-Sep-19 19:51 278 2 gusting 4 2.2
2019-Sep-19 19:46 295 2.2
2019-Sep-19 19:41 278 1 gusting 2 2.2
2019-Sep-19 19:36 293 0 gusting 6 2.2
2019-Sep-19 19:31 282 2.8
2019-Sep-19 19:26 282 2.2
2019-Sep-19 19:21 309 0 gusting 3 2.8
2019-Sep-19 19:16 307 0 gusting 1 2.8
2019-Sep-19 19:11 305 2.8
2019-Sep-19 19:06 300 2.8
2019-Sep-19 19:01 305 2.8
2019-Sep-19 18:56 305 2.8
2019-Sep-19 18:51 305 2.8
2019-Sep-19 18:46 305 2.8
2019-Sep-19 18:41 305 2.8
2019-Sep-19 18:36 305 2.8
2019-Sep-19 18:31 305 2.8
2019-Sep-19 18:26 305 2.8
2019-Sep-19 18:21 305 2.8
2019-Sep-19 18:16 298 3.3
2019-Sep-19 18:11 260 3.3
2019-Sep-19 18:06 306 3.3
2019-Sep-19 18:01 306 3.3
2019-Sep-19 17:56 292 3.3
2019-Sep-19 17:51 292 3.3
2019-Sep-19 17:46 292 3.3
2019-Sep-19 17:41 292 3.3
2019-Sep-19 17:36 300 3.3
2019-Sep-19 17:31 300 1 gusting 4 3.3
2019-Sep-19 17:26 337 1 gusting 3 3.3
2019-Sep-19 17:21 317 0 gusting 4 3.3
2019-Sep-19 17:16 340 3.9
2019-Sep-19 17:11 312 2 gusting 3 3.9
2019-Sep-19 17:06 323 1 gusting 5 3.9
2019-Sep-19 17:01 319 0 gusting 5 3.9
2019-Sep-19 16:56 316 2 gusting 3 3.9
2019-Sep-19 16:51 331 1 gusting 3 3.9
2019-Sep-19 16:46 310 2 gusting 4 3.9
2019-Sep-19 16:41 334 3 gusting 4 3.9
2019-Sep-19 16:36 309 0 gusting 4 4.4
2019-Sep-19 16:31 330 0 gusting 4 4.4
2019-Sep-19 16:26 323 1 gusting 5 4.4
2019-Sep-19 16:21 336 3 gusting 5 4.4
2019-Sep-19 16:16 334 0 gusting 5 4.4
2019-Sep-19 16:11 327 2 gusting 6 4.4
2019-Sep-19 16:06 324 2 gusting 3 4.4
2019-Sep-19 16:01 330 3 gusting 6 4.4
2019-Sep-19 15:56 331 1 gusting 5 4.4
2019-Sep-19 15:51 319 1 gusting 6 4.4
2019-Sep-19 15:46 329 1 gusting 6 5.0
2019-Sep-19 15:41 338 1 gusting 6 5.0
2019-Sep-19 15:36 306 1 gusting 5 5.0
2019-Sep-19 15:31 313 1 gusting 6 5.0
2019-Sep-19 15:26 315 0 gusting 5 5.0
2019-Sep-19 15:21 302 3 gusting 4 5.6
2019-Sep-19 15:16 323 3 gusting 6 5.6
2019-Sep-19 15:11 343 4 gusting 5 5.6
2019-Sep-19 15:06 334 5 gusting 5 5.6
2019-Sep-19 15:01 324 2 gusting 6 5.6
2019-Sep-19 14:56 327 1 gusting 6 5.6
2019-Sep-19 14:51 310 2 gusting 6 5.6
2019-Sep-19 14:46 333 1 gusting 4 6.1
2019-Sep-19 14:41 309 2 gusting 6 5.6
2019-Sep-19 14:36 291 3 gusting 5 6.1
2019-Sep-19 14:31 344 1 gusting 5 6.1
2019-Sep-19 14:26 331 0 gusting 5 6.1
2019-Sep-19 14:21 315 2 gusting 6 6.1
2019-Sep-19 14:16 310 0 gusting 4 6.1
2019-Sep-19 14:11 313 0 gusting 6 6.1
2019-Sep-19 14:06 350 1 gusting 4 6.1
2019-Sep-19 14:01 305 2 gusting 6 5.6
2019-Sep-19 13:56 343 2 gusting 6 5.6
2019-Sep-19 13:51 326 0 gusting 4 5.6
2019-Sep-19 13:46 336 2 gusting 4 5.6
2019-Sep-19 13:41 313 5.6
2019-Sep-19 13:36 326 2 gusting 4 5.6
2019-Sep-19 13:31 337 5.6
2019-Sep-19 13:26 312 3 gusting 6 5.6
2019-Sep-19 13:21 309 1 gusting 5 5.6
2019-Sep-19 13:16 341 0 gusting 6 5.6
2019-Sep-19 13:11 312 1 gusting 5 5.6
2019-Sep-19 13:06 333 2 gusting 4 5.6
2019-Sep-19 13:01 317 2 gusting 5 5.6
2019-Sep-19 12:56 354 1 gusting 6 5.6
2019-Sep-19 12:51 315 1 gusting 4 5.6
2019-Sep-19 12:46 312 2 gusting 6 5.6
2019-Sep-19 12:41 334 4 gusting 6 5.0
2019-Sep-19 12:36 334 2 gusting 6 5.0
2019-Sep-19 12:31 313 2 gusting 5 5.6
2019-Sep-19 12:26 320 0 gusting 5 5.6
2019-Sep-19 12:21 331 3 gusting 5 5.6
2019-Sep-19 12:16 329 0 gusting 3 5.6
2019-Sep-19 12:11 316 0 gusting 6 5.6
2019-Sep-19 12:06 293 3 gusting 5 5.6
2019-Sep-19 12:01 317 0 gusting 1 5.6
2019-Sep-19 11:56 320 0 gusting 6 5.6
2019-Sep-19 11:51 316 3 gusting 5 5.6
2019-Sep-19 11:46 320 3 gusting 6 5.0
2019-Sep-19 11:41 324 3 gusting 6 5.0
2019-Sep-19 11:36 345 5.0
2019-Sep-19 11:31 331 5.0
2019-Sep-19 11:21 343 5.0
2019-Sep-19 11:16 331 3 gusting 4 5.0
2019-Sep-19 11:11 309 1 gusting 4 5.0
2019-Sep-19 11:06 324 5.0
2019-Sep-19 11:01 324 2 gusting 3 5.0
2019-Sep-19 10:51 336 4.4
2019-Sep-19 10:46 326 0 gusting 4 4.4
2019-Sep-19 10:41 199 5.0
2019-Sep-19 10:36 329 5.0
2019-Sep-19 10:31 329 4.4
2019-Sep-19 10:26 306 4.4
2019-Sep-19 10:21 322 2 gusting 4 4.4
2019-Sep-19 10:16 316 1 gusting 3 4.4
2019-Sep-19 10:11 317 1 gusting 5 4.4
2019-Sep-19 10:06 345 4.4
2019-Sep-19 10:01 317 4.4
2019-Sep-19 09:56 324 3.9
2019-Sep-19 09:51 316 3.9
2019-Sep-19 09:46 330 3.9
2019-Sep-19 09:41 338 3.9
2019-Sep-19 09:36 333 3.9
2019-Sep-19 09:01 330 1 gusting 4 3.3
2019-Sep-19 08:56 333 2.8
2019-Sep-19 08:51 327 2.8
2019-Sep-19 08:46 317 2.8
2019-Sep-19 08:41 327 0 gusting 3 2.8
2019-Sep-19 08:36 324 2.8
2019-Sep-19 08:31 312 2.8
2019-Sep-19 08:26 327 2 gusting 5 2.2
2019-Sep-19 08:21 333 2.2
2019-Sep-19 08:16 326 2 gusting 5 2.2
2019-Sep-19 08:11 322 3 gusting 3 2.2
2019-Sep-19 07:41 312 1.7
2019-Sep-19 07:36 317 1.7
2019-Sep-19 07:31 333 1.7
2019-Sep-19 07:26 327 1.7
2019-Sep-19 07:21 327 1.7
2019-Sep-19 07:16 327 1.7
2019-Sep-19 07:11 323 1.7
2019-Sep-19 07:06 312 1.7
2019-Sep-19 07:01 315 1.1
2019-Sep-19 06:56 315 1.1
2019-Sep-19 06:51 315 1.1
2019-Sep-19 06:46 313 1.1
2019-Sep-19 06:41 316 1.1
2019-Sep-19 06:36 331 1 gusting 3 1.1
2019-Sep-19 06:31 315 1.1
2019-Sep-19 06:26 324 1.1
2019-Sep-19 06:21 323 0.6
2019-Sep-19 06:16 323 0.6
2019-Sep-19 06:11 320 0.6
2019-Sep-19 06:06 329 0 gusting 6 0.6
2019-Sep-19 06:01 022 0.6
2019-Sep-19 05:56 352 2 gusting 2 0.6
2019-Sep-19 05:51 351 1 gusting 3 -0.0
2019-Sep-19 05:46 336 -0.0
2019-Sep-19 05:41 324 1 gusting 4 -0.0
2019-Sep-19 05:36 004 0 gusting 3 -0.0
2019-Sep-19 05:26 350 3 gusting 5 -0.0
2019-Sep-19 05:21 336 -0.0
2019-Sep-19 05:16 327 -0.0
2019-Sep-19 05:11 351 -0.0
2019-Sep-19 05:06 343 2 gusting 4 -0.0
2019-Sep-19 05:01 305 0 gusting 4 -0.0
2019-Sep-19 04:56 002 -0.0
2019-Sep-19 04:51 343 0 gusting 3 -0.0
2019-Sep-19 04:46 001 -0.0
2019-Sep-19 04:41 348 -0.0
2019-Sep-19 04:36 348 3 gusting 4 -0.0
2019-Sep-19 04:31 350 3 gusting 5 -0.0
2019-Sep-19 04:26 351 1 gusting 3 -0.0
2019-Sep-19 04:21 351 -0.0
2019-Sep-19 04:16 345 -0.0
2019-Sep-19 04:11 351 -0.0
2019-Sep-19 04:06 334 -0.0
2019-Sep-19 04:01 341 -0.0
2019-Sep-19 03:56 326 3 gusting 4 -0.0
2019-Sep-19 03:51 340 -0.0
2019-Sep-19 03:46 336 -0.0
2019-Sep-19 03:41 344 -0.0
2019-Sep-19 03:36 344 -0.0
2019-Sep-19 03:31 344 -0.0
2019-Sep-19 03:26 331 0 gusting 5 -0.0
2019-Sep-19 03:21 338 -0.0
2019-Sep-19 03:16 329 -0.6
2019-Sep-19 03:11 029 0 gusting 3 -1.1
2019-Sep-19 03:06 040 -1.1
2019-Sep-19 03:01 338 -1.1
2019-Sep-19 02:56 334 -1.1
2019-Sep-19 02:51 334 -1.1
2019-Sep-19 02:46 334 -0.6
2019-Sep-19 02:41 334 -0.6
2019-Sep-19 02:36 334 -0.6
2019-Sep-19 02:31 334 -0.6
2019-Sep-19 02:26 334 -0.0
2019-Sep-19 02:21 347 -0.0
2019-Sep-19 02:16 347 -0.0
2019-Sep-19 02:11 347 -0.0
2019-Sep-19 02:06 330 -0.0
2019-Sep-19 02:01 333 0 gusting 1 -0.0
2019-Sep-19 01:56 329 -0.0
2019-Sep-19 01:51 329 -0.0
2019-Sep-19 01:46 329 -0.0
2019-Sep-19 01:41 329 -0.0
2019-Sep-19 01:36 329 -0.0
2019-Sep-19 01:31 324 -0.0
2019-Sep-19 01:26 337 2 gusting 2 -0.0
2019-Sep-19 01:21 334 -0.0
2019-Sep-19 01:16 326 -0.0
2019-Sep-19 01:11 340 -0.0
2019-Sep-19 01:06 340 -0.0
2019-Sep-19 00:56 319 0 gusting 4 -0.6
2019-Sep-19 00:51 340 0 gusting 4 -0.6
2019-Sep-19 00:46 336 -1.1
2019-Sep-19 00:41 336 -1.7
2019-Sep-19 00:36 336 -1.7
2019-Sep-19 00:31 336 -1.1
2019-Sep-19 00:26 336 -1.1
2019-Sep-19 00:21 336 -1.1
2019-Sep-19 00:16 336 -0.6
2019-Sep-19 00:11 336 -0.6
2019-Sep-19 00:06 336 -0.6
2019-Sep-19 00:01 336 -0.6
2019-Sep-18 23:56 336 -0.6
2019-Sep-18 23:51 336 -0.6
2019-Sep-18 23:46 336 -0.6
2019-Sep-18 23:41 336 -0.6
2019-Sep-18 23:36 336 -0.0
2019-Sep-18 23:31 336 -0.0
2019-Sep-18 23:26 336 -0.0
2019-Sep-18 23:21 336 -0.0
2019-Sep-18 23:16 336 -0.0
2019-Sep-18 23:11 336 0.6
2019-Sep-18 23:06 336 0.6
2019-Sep-18 23:01 336 0.6
2019-Sep-18 22:56 336 0.6
2019-Sep-18 22:51 336 1.1
2019-Sep-18 22:46 336 1.1
2019-Sep-18 22:41 336 1.1
2019-Sep-18 22:36 336 1 gusting 4 0.6
2019-Sep-18 22:31 344 1 gusting 3 0.6
2019-Sep-18 22:26 347 1 gusting 2 0.6
2019-Sep-18 22:21 324 0.6
2019-Sep-18 22:16 324 0.6
2019-Sep-18 22:11 324 1.1
2019-Sep-18 22:06 324 1.1
2019-Sep-18 22:01 324 1.1
2019-Sep-18 21:56 324 1.7
2019-Sep-18 21:51 324 1.7
2019-Sep-18 21:46 001 0 gusting 4 1.7
2019-Sep-18 21:41 338 1.7
2019-Sep-18 21:36 338 3 gusting 5 1.7
2019-Sep-18 21:31 343 1 gusting 4 1.7
2019-Sep-18 21:26 330 3 gusting 5 1.7
2019-Sep-18 21:21 338 3 gusting 6 1.7
2019-Sep-18 21:16 313 1.7
2019-Sep-18 21:11 336 1.7
2019-Sep-18 21:06 336 1 gusting 4 1.7
2019-Sep-18 21:01 351 2 gusting 5 1.7
2019-Sep-18 20:56 018 1.7
2019-Sep-18 20:51 333 2 gusting 6 1.7
2019-Sep-18 20:46 333 1 gusting 7 1.7
2019-Sep-18 20:41 351 1 gusting 6 1.7
2019-Sep-18 20:36 334 1.7
2019-Sep-18 20:31 340 1 gusting 5 1.7
2019-Sep-18 20:26 343 0 gusting 7 1.7
2019-Sep-18 20:21 007 5 gusting 5 1.7
2019-Sep-18 20:16 354 4 gusting 5 1.7
2019-Sep-18 20:11 348 2 gusting 4 1.7
2019-Sep-18 20:06 352 1.7
2019-Sep-18 20:01 043 1.7
2019-Sep-18 19:56 026 1.7
2019-Sep-18 19:51 036 0 gusting 6 1.7
2019-Sep-18 19:46 019 0 gusting 5 1.7
2019-Sep-18 19:41 323 0 gusting 6 1.7
2019-Sep-18 19:36 313 2.2
2019-Sep-18 19:31 348 2.2
2019-Sep-18 19:26 327 2.2
2019-Sep-18 19:21 347 0 gusting 7 2.2
2019-Sep-18 19:16 330 2 gusting 5 2.2
2019-Sep-18 19:11 310 0 gusting 4 2.2
2019-Sep-18 19:06 331 0 gusting 3 2.2
2019-Sep-18 19:01 338 1 gusting 5 2.2
2019-Sep-18 18:56 340 2.2
2019-Sep-18 18:51 317 2.2
2019-Sep-18 18:46 326 0 gusting 3 2.8
2019-Sep-18 18:41 317 2.8
2019-Sep-18 18:36 324 0 gusting 3 2.8
2019-Sep-18 18:31 329 2.8
2019-Sep-18 18:26 327 2.8
2019-Sep-18 18:21 315 2.8
2019-Sep-18 18:16 345 2 gusting 2 2.8
2019-Sep-18 18:11 333 2.8
2019-Sep-18 18:06 333 2.8
2019-Sep-18 18:01 333 3.3
2019-Sep-18 17:56 340 3.3
2019-Sep-18 17:51 313 0 gusting 3 3.3
2019-Sep-18 17:46 323 1 gusting 5 3.3
2019-Sep-18 17:41 313 3.3
2019-Sep-18 17:36 330 3.9
2019-Sep-18 17:31 309 2 gusting 5 3.9
2019-Sep-18 17:26 326 1 gusting 6 3.9
2019-Sep-18 17:21 324 3 gusting 4 4.4
2019-Sep-18 17:16 329 0 gusting 6 4.4
2019-Sep-18 17:11 334 1 gusting 6
2019-Sep-18 17:06 324 2 gusting 4 5.0
2019-Sep-18 17:01 334 2 gusting 5 5.0
2019-Sep-18 16:56 330 1 gusting 6 5.0
2019-Sep-18 16:51 313 2 gusting 8 5.0
2019-Sep-18 16:46 299 0 gusting 6 5.0
2019-Sep-18 16:41 334 2 gusting 7 5.0
2019-Sep-18 16:36 345 3 gusting 8 5.0
2019-Sep-18 16:31 326 1 gusting 8 5.0
2019-Sep-18 16:26 317 0 gusting 7 5.0
2019-Sep-18 16:21 337 1 gusting 6 5.0
2019-Sep-18 16:16 292 1 gusting 7 5.0
2019-Sep-18 16:11 316 2 gusting 7 5.6
2019-Sep-18 16:06 338 5 gusting 10 5.6
2019-Sep-18 16:01 312 6 gusting 10 6.1